TimeICT,TemperatureF,Dew PointF,Humidity,Sea Level PressureIn,VisibilityMPH,Wind Direction,Wind SpeedMPH,Gust SpeedMPH,PrecipitationIn,Events,Conditions,WindDirDegrees,DateUTC
12:00 AM,77.0,66.2,69,29.83,5.6,ENE,4.6,-,N/A,,Unknown,60,2013-01-05 17:00:00
12:30 AM,75.2,66.2,73,29.83,5.6,ENE,2.3,-,N/A,,Unknown,60,2013-01-05 17:30:00
1:00 AM,76,65,60,29.82,5,Calm,Calm,,,,Mist,,2013-01-05 18:00:00
1:00 AM,75.2,66.2,73,29.83,5.0,Calm,Calm,-,N/A,,Unknown,0,2013-01-05 18:00:00
1:30 AM,73.4,66.2,78,29.83,4.3,Calm,Calm,-,N/A,,Scattered Clouds,0,2013-01-05 18:30:00
2:00 AM,75.2,64.4,69,29.83,4.3,East,5.8,-,N/A,,Scattered Clouds,80,2013-01-05 19:00:00
2:30 AM,75.2,66.2,73,29.80,3.7,ENE,3.5,-,N/A,,Scattered Clouds,70,2013-01-05 19:30:00
3:00 AM,77.0,66.2,69,29.80,3.7,ENE,5.8,-,N/A,,Scattered Clouds,60,2013-01-05 20:00:00
3:30 AM,71.6,66.2,83,29.80,3.1,Calm,Calm,-,N/A,,Mist,0,2013-01-05 20:30:00
4:00 AM,73.4,66.2,78,29.80,3.1,East,2.3,-,N/A,,Mist,90,2013-01-05 21:00:00
4:30 AM,73.4,66.2,78,29.83,3.1,Calm,Calm,-,N/A,,Mist,0,2013-01-05 21:30:00
5:00 AM,71.6,64.4,78,29.83,3.7,Calm,Calm,-,N/A,,Unknown,0,2013-01-05 22:00:00
5:30 AM,73.4,66.2,78,29.83,4.3,Calm,Calm,-,N/A,,Unknown,0,2013-01-05 22:30:00
6:00 AM,71.6,64.4,78,29.83,5.0,Calm,Calm,-,N/A,,Unknown,0,2013-01-05 23:00:00
6:30 AM,71.6,64.4,78,29.86,5.0,Calm,Calm,-,N/A,,Unknown,0,2013-01-05 23:30:00
7:00 AM,71.6,64.4,78,29.86,5.6,NNE,3.5,-,N/A,,Unknown,30,2013-01-06 00:00:00
7:30 AM,71.6,64.4,78,29.89,5.6,North,4.6,-,N/A,,Unknown,10,2013-01-06 00:30:00
8:00 AM,73.4,66.2,78,29.89,5.6,NNE,4.6,-,N/A,,Unknown,30,2013-01-06 01:00:00
8:30 AM,77.0,60.8,57,29.92,6.2,ENE,4.6,-,N/A,,Mostly Cloudy,70,2013-01-06 01:30:00
9:00 AM,78.8,62.6,57,29.95,6.2,East,6.9,-,N/A,,Mostly Cloudy,90,2013-01-06 02:00:00
9:30 AM,78.8,62.6,57,29.95,6.2,ENE,5.8,-,N/A,,Mostly Cloudy,60,2013-01-06 02:30:00
10:00 AM,82.4,64.4,54,29.95,6.2,ENE,8.1,-,N/A,,Mostly Cloudy,70,2013-01-06 03:00:00
10:30 AM,82.4,60.8,48,29.92,6.2,ENE,9.2,-,N/A,,Mostly Cloudy,70,2013-01-06 03:30:00
11:00 AM,82.4,60.8,48,29.92,6.2,NE,9.2,-,N/A,,Mostly Cloudy,50,2013-01-06 04:00:00
11:30 AM,82.4,60.8,48,29.92,6.2,ENE,8.1,-,N/A,,Mostly Cloudy,60,2013-01-06 04:30:00
12:00 PM,86.0,62.6,45,29.89,6.2,ENE,8.1,-,N/A,,Mostly Cloudy,60,2013-01-06 05:00:00
12:30 PM,87.8,62.6,43,29.86,6.2,ENE,9.2,-,N/A,,Mostly Cloudy,60,2013-01-06 05:30:00
1:00 PM,91,61,27,29.83,5,ENE,11.5,,,,Haze,60,2013-01-06 06:00:00
1:00 PM,87.8,60.8,40,29.86,6.2,ENE,10.4,-,N/A,,Mostly Cloudy,70,2013-01-06 06:00:00
1:30 PM,89.6,59.0,36,29.83,6.2,ENE,10.4,-,N/A,,Mostly Cloudy,60,2013-01-06 06:30:00
2:00 PM,89.6,59.0,36,29.83,6.2,ENE,9.2,-,N/A,,Mostly Cloudy,70,2013-01-06 07:00:00
2:30 PM,89.6,57.2,33,29.80,6.2,East,9.2,-,N/A,,Mostly Cloudy,90,2013-01-06 07:30:00
3:00 PM,89.6,57.2,33,29.80,6.2,NE,8.1,-,N/A,,Mostly Cloudy,50,2013-01-06 08:00:00
3:30 PM,89.6,57.2,33,29.80,6.2,ENE,6.9,-,N/A,,Mostly Cloudy,60,2013-01-06 08:30:00
4:00 PM,89.6,57.2,33,29.80,6.2,NE,6.9,-,N/A,,Mostly Cloudy,50,2013-01-06 09:00:00
4:30 PM,87.8,57.2,35,29.80,6.2,NE,5.8,-,N/A,,Mostly Cloudy,40,2013-01-06 09:30:00
5:00 PM,89.6,55.4,31,29.80,6.2,NNE,5.8,-,N/A,,Mostly Cloudy,30,2013-01-06 10:00:00
5:30 PM,87.8,57.2,35,29.80,6.2,NNE,4.6,-,N/A,,Mostly Cloudy,20,2013-01-06 10:30:00
6:00 PM,86.0,59.0,40,29.80,6.2,NNE,5.8,-,N/A,,Mostly Cloudy,20,2013-01-06 11:00:00
6:30 PM,86.0,59.0,40,29.83,6.2,NNW,6.9,-,N/A,,Mostly Cloudy,330,2013-01-06 11:30:00
7:00 PM,86,65,39,29.81,5,NE,4.6,,,,Haze,40,2013-01-06 12:00:00
7:00 PM,86.0,59.0,40,29.83,6.2,NNW,5.8,-,N/A,,Mostly Cloudy,330,2013-01-06 12:00:00
7:30 PM,84.2,60.8,45,29.83,6.2,NNW,8.1,-,N/A,,Mostly Cloudy,330,2013-01-06 12:30:00
8:00 PM,82.4,62.6,51,29.86,6.2,NNW,6.9,-,N/A,,Mostly Cloudy,330,2013-01-06 13:00:00
8:30 PM,80.6,60.8,51,29.86,6.2,NNW,6.9,-,N/A,,Mostly Cloudy,340,2013-01-06 13:30:00
9:00 PM,80.6,60.8,51,29.86,6.2,NNW,6.9,-,N/A,,Mostly Cloudy,340,2013-01-06 14:00:00
9:30 PM,80.6,62.6,54,29.89,6.2,NW,8.1,-,N/A,,Mostly Cloudy,320,2013-01-06 14:30:00
10:00 PM,80.6,62.6,54,29.89,6.2,NNW,8.1,-,N/A,,Mostly Cloudy,340,2013-01-06 15:00:00
10:30 PM,80.6,62.6,54,29.89,6.2,NW,8.1,-,N/A,,Mostly Cloudy,320,2013-01-06 15:30:00
11:00 PM,78.8,62.6,57,29.86,6.2,NW,8.1,-,N/A,,Mostly Cloudy,310,2013-01-06 16:00:00
11:30 PM,78.8,60.8,54,29.86,6.2,NW,9.2,-,N/A,,Mostly Cloudy,310,2013-01-06 16:30:00